This demonstration page uses our WeatherBlox Daily Observations layout. Learn more.

Left ArrowRight Arrow

Hourly Observations for June 7, 2017

Temp ( °F °C ) Dew Point ( °F °C ) Humidity (%) Winds ( mph kmh ) Pressure ( in mb ) Visibility ( mi km ) Precip ( " mm )
12:06 am 00:06 undefined N/A N/A N/A undefined N/A N/A N/A N/A
12:26 am 00:26 undefined N/A N/A N/A undefined N/A N/A N/A N/A
12:46 am 00:46 undefined N/A N/A N/A undefined N/A N/A N/A N/A
1:07 am 01:07 undefined N/A N/A N/A undefined N/A N/A N/A N/A
1:26 am 01:26 undefined N/A N/A N/A undefined N/A N/A N/A N/A
1:46 am 01:46 undefined N/A N/A N/A undefined N/A N/A N/A N/A
2:07 am 02:07 undefined N/A N/A N/A undefined N/A N/A N/A N/A
2:26 am 02:26 undefined N/A N/A N/A undefined N/A N/A N/A N/A
2:46 am 02:46 undefined N/A N/A N/A undefined N/A N/A N/A N/A
3:06 am 03:06 undefined N/A N/A N/A undefined N/A N/A N/A N/A
3:26 am 03:26 undefined N/A N/A N/A undefined N/A N/A N/A N/A
3:47 am 03:47 undefined N/A N/A N/A undefined N/A N/A N/A N/A
4:06 am 04:06 undefined N/A N/A N/A undefined N/A N/A N/A N/A
4:26 am 04:26 undefined N/A N/A N/A undefined N/A N/A N/A N/A
4:46 am 04:46 undefined N/A N/A N/A undefined N/A N/A N/A N/A
5:06 am 05:06 undefined N/A N/A N/A undefined N/A N/A N/A N/A
5:27 am 05:27 undefined N/A N/A N/A undefined N/A N/A N/A N/A
5:46 am 05:46 undefined N/A N/A N/A undefined N/A N/A N/A N/A
6:07 am 06:07 undefined N/A N/A N/A undefined N/A N/A N/A N/A
6:26 am 06:26 undefined N/A N/A N/A undefined N/A N/A N/A N/A
6:46 am 06:46 undefined N/A N/A N/A undefined N/A N/A N/A N/A
7:07 am 07:07 undefined N/A N/A N/A undefined N/A N/A N/A N/A
7:26 am 07:26 undefined N/A N/A N/A undefined N/A N/A N/A N/A
7:47 am 07:47 undefined N/A N/A N/A undefined N/A N/A N/A N/A
8:06 am 08:06 undefined N/A N/A N/A undefined N/A N/A N/A N/A
8:27 am 08:27 undefined N/A N/A N/A undefined N/A N/A N/A N/A
8:46 am 08:46 undefined N/A N/A N/A undefined N/A N/A N/A N/A
9:06 am 09:06 undefined N/A N/A N/A undefined N/A N/A N/A N/A
9:27 am 09:27 undefined N/A N/A N/A undefined N/A N/A N/A N/A
9:46 am 09:46 undefined N/A N/A N/A undefined N/A N/A N/A N/A
10:07 am 10:07 undefined N/A N/A N/A undefined N/A N/A N/A N/A
10:26 am 10:26 undefined N/A N/A N/A undefined N/A N/A N/A N/A
10:46 am 10:46 undefined N/A N/A N/A undefined N/A N/A N/A N/A
11:07 am 11:07 undefined N/A N/A N/A undefined N/A N/A N/A N/A
11:26 am 11:26 undefined N/A N/A N/A undefined N/A N/A N/A N/A
11:47 am 11:47 undefined N/A N/A N/A undefined N/A N/A N/A N/A
12:06 pm 12:06 undefined N/A N/A N/A undefined N/A N/A N/A N/A
12:27 pm 12:27 undefined N/A N/A N/A undefined N/A N/A N/A N/A
12:46 pm 12:46 undefined N/A N/A N/A undefined N/A N/A N/A N/A
1:07 pm 13:07 Sunny 66 19 48 9 52 52 ENE 16 26 30.06 1018 10 16 N/A
1:27 pm 13:27 Cloudy 66 19 48 9 52 52 ENE 16 26 30.06 1018 10 16 N/A
1:46 pm 13:46 Cloudy 64 18 48 9 56 56 NE 16 26 30.06 1018 10 16 N/A
2:07 pm 14:07 Cloudy 64 18 50 10 60 60 NE 12 19 30.06 1018 10 16 N/A
2:26 pm 14:26 Cloudy 64 18 48 9 56 56 NE 15 24 30.06 1018 10 16 N/A
2:46 pm 14:46 Cloudy 64 18 48 9 56 56 NE 16 26 30.06 1018 10 16 N/A
3:07 pm 15:07 Cloudy 64 18 48 9 56 56 NE 15 24 30.06 1018 10 16 N/A
3:26 pm 15:26 Cloudy 66 19 48 9 52 52 E 18 30 30.06 1018 10 16 N/A
3:47 pm 15:47 Cloudy 66 19 50 10 56 56 ENE 13 20 30.06 1018 10 16 N/A
4:06 pm 16:06 Cloudy 66 19 48 9 52 52 ENE 15 24 30.06 1018 10 16 N/A
4:27 pm 16:27 Cloudy 66 19 48 9 52 52 NE 14 22 30.06 1018 10 16 N/A
4:46 pm 16:46 Mostly Cloudy 68 20 48 9 49 49 ENE 20 31 30.06 1018 10 16 N/A
5:06 pm 17:06 Mostly Cloudy 68 20 46 8 46 46 NE 15 24 30.06 1018 10 16 N/A
5:27 pm 17:27 Mostly Cloudy 68 20 46 8 46 46 ENE 15 24 30.06 1018 10 16 N/A
5:46 pm 17:46 Mostly Cloudy 68 20 46 8 46 46 ENE 16 26 30.03 1017 10 16 N/A
6:07 pm 18:07 Partly Cloudy 70 21 46 8 43 43 NE 18 30 30.00 1016 10 16 N/A
6:26 pm 18:26 Partly Cloudy 70 21 46 8 43 43 ENE 20 31 30.00 1016 10 16 N/A
6:47 pm 18:47 Partly Cloudy 70 21 45 7 40 40 NE 14 22 30.00 1016 10 16 N/A
7:06 pm 19:06 Partly Cloudy 68 20 45 7 43 43 NE 16 26 30.03 1017 10 16 N/A
7:26 pm 19:26 Partly Cloudy 70 21 43 6 38 38 NE 16 26 30.00 1016 10 16 N/A
7:47 pm 19:47 Partly Cloudy 68 20 43 6 40 40 ENE 17 28 30.03 1017 10 16 N/A
8:06 pm 20:06 Sunny 68 20 43 6 40 40 ENE 14 22 30.03 1017 10 16 N/A
8:27 pm 20:27 Sunny 66 19 43 6 43 43 ENE 17 28 30.06 1018 10 16 N/A
8:46 pm 20:46 Sunny 66 19 43 6 43 43 ENE 10 17 30.06 1018 10 16 N/A
9:06 pm 21:06 Sunny 64 18 41 5 43 43 ENE 12 19 30.06 1018 10 16 N/A
9:27 pm 21:27 Clear 63 17 39 4 42 42 E 12 19 30.06 1018 10 16 N/A
9:46 pm 21:46 Clear 63 17 39 4 42 42 ENE 10 17 30.06 1018 10 16 N/A
10:06 pm 22:06 Clear 61 16 41 5 48 48 ENE 9 15 30.06 1018 10 16 N/A
10:26 pm 22:26 Clear 59 15 41 5 51 51 E 5 7 30.06 1018 10 16 N/A
10:46 pm 22:46 Clear 57 14 41 5 55 55 E 6 9 30.06 1018 10 16 N/A
11:07 pm 23:07 Clear 59 15 41 5 51 51 ENE 5 7 30.06 1018 10 16 N/A
11:26 pm 23:26 Clear 59 15 41 5 51 51 ENE 3 6 30.06 1018 10 16 N/A
11:46 pm 23:46 Clear 57 14 41 5 55 55 NE 3 6 30.06 1018 10 16 N/A

Powered by AerisWeather